"Pseudo-MPEC" for P1168tM

Created 2020 Sep 18 10:07:38 UT using Find_Orb

Click here for an explanation of pseudo-MPECs

 
 Astrometry: 
     P1168tM  C2020 09 159sb,wV?UEx+]#5bXlJ319P%5;;1AstrometryRokBZQ?6pN[HYrKF51
     P1168tM  C2020 09 15Ik4[]8nnQEM@:h,l8J7Z*iTt9(Ub(gesUFVmo$x:Rs.@%X)kmgZGF51
     P1168tM  C2020 09 15at)p6redacted;Ex#dq3eMZRYN^R\$167:'^'b_h6h^Lh7)R.=6wF51
     P1168tM  C2020 09 16.44303 04 24 52.29 -11 00 18.4    ~9GBM 20.0 GVNEOCPI52
     P1168tM  C2020 09 16.44843 04 24 52.43 -11 00 15.6    ~9GBM 19.6 GVNEOCPI52
     P1168tM  C2020 09 16.45387 04 24 52.59 -11 00 13.0    ~9GBM 19.7 GVNEOCPI52
     P1168tM  C2020 09 16.45931 04 24 52.71 -11 00 10.3    ~9GBM 19.4 GVNEOCPI52
     P1168tM KC2020 09 16Qh0%b;*sQugY3nur6e;Nk)et5Nk-dB^,R2:clickYpgeFTxYMRl8711
     P1168tM KC2020 09 16mt)P`We4rxDW^vOpj.f1s2?Kluxxg6kbsA+`j-YB,j\?v'Ml!)2L711
     P1168tM KC2020 09 16OaKMO;rk5mG@S7'23gV9JuiQ#_w$h/*=KUDTKE`cFZ=];)J):c-5711
     P1168tM  C2020 09 16,88k5p4y!+J0P$[FIudoU[,K0TXsanYy`$4W83Xx7h(;JNdy83/MF51
     P1168tM  C2020 09 16sZl)4JVOri(Ynp6`^n^u6f7:oU:aCI5p)'TqQ0JT(]HRs.6gGfW3F51
     P1168tM  C2020 09 16#r\22DU5hereYr:ZiEDCIx%,FW%/HFV4$CkP#J3Q]9IwMlBq5lJ:F51
     P1168tM  C2020 09 16xJKXYs$fori-\gR2G0(qC3.66+c('4qM^1/7^B0frySJeZHKW[YmF51
     P1168tM  C2020 09 16r0TyyLM]7SFNki_-U1`b[pNg'cO[r_6q^bxvSQB(veA*tRj6gJR7F51
     P1168tM  C2020 09 16x??bsnwk-3cFO;B]GeC^`M2lrI3B!KuuD7nlh`y#E+Ahe:-/xG6dF51
     P1168tM ^C2020 09 16.57936604 24 56.213-10 59 11.33   ~9GLq 20.45GVNEOCP568
     P1168tM ^C2020 09 16.58031504 24 56.238-10 59 10.88   ~9GLq 20.44GVNEOCP568
     P1168tM  C2020 09 169b3M_5R40vK$B9AoAAU:wYV+B.RYsFu,sZu%n_Usw3\\X97LV5+fF51
     P1168tM ^C2020 09 16.58126304 24 56.262-10 59 10.43   ~9GLq 20.46GVNEOCP568
     P1168tM  C2020 09 17tNuaHL\.Eq^JeCY9aVxubVhT(DCg1qo`w0.JGpITN]x-v9d79?G'F51
     P1168tM  C2020 09 17M)Lpq7g@wQ_hx/lpd@-M^Uk:G*Ynf,x8VI)wiZt?^LNPvlJ*bxhCF51
     P1168tM  C2020 09 17(?N3:e,Yhi02I,Beexplanation3po/=@9%r'w;dC*](IC;8fJ5,F51

Station data:
(568) Mauna Kea  (N19.826116 W155.472200)  US/Hawaii.
(711) McDonald Observatory, Fort Davis  (N30.671481 W104.021500)  US/Texas.
   0.76-m f/3.0 reflector.
(F51) Pan-STARRS 1, Haleakala  (N20.707235 W156.255910)  US/Hawaii.
   Observers N. Primak, A. Schultz, S. Watters, J. Thiel, T. Goggia. Measurer
   PS1 Science Consortium. 1.8-m Ritchey-Chrétien + CCD.
(I52) Steward Observatory, Mt. Lemmon Station  (N32.442547 W110.788920)
   US/Arizona.  Observers T. A. Pruyne, B. M. Africano, E. J. Christensen, G.
   A. Farneth, D. C. Fuls, A. R. Gibbs, A. D. Grauer, H. Gröller, J. A.
   Johnson, R. A. Kowalski, S. M. Larson, G. J. Leonard, D. Rankin, R. L.
   Seaman, F. C. Shelly. 1.0-m reflector + CCD.

Orbital elements:  P1168tM
   Perihelion 2020 Aug 13.291256 +/- 7.27 TT =  6:59:24 (JD 2459074.791256)
Epoch 2020 Sep 17.0 TT = JDT 2459109.5   Earth MOID: 0.8115   AutoNEOCP
M   8.42353791 +/- 1.4              (J2000 ecliptic)
n   0.24269209 +/- 0.0297           Peri.  301.25536 +/- 4.7
a   2.54545620 +/- 0.208            Node    62.68224 +/- 1.1
e   0.3421116 +/- 0.0505            Incl.   31.42906 +/- 0.54
P   4.06                   H 17.9   G  0.15   U 10.4  
q 1.67462594 +/- 0.0202    Q 3.41628645 +/- 0.432
From 23 observations 2020 Sept. 15-17; mean residual 0".23
Residuals in arcseconds: 
200915 F51  .13+  .09-    200916 711  .61-  .38+    200916 568  .18+  .01-    
200915 F51  .11+  .09-    200916 711  .59-  .42+    200916 568  .19+  .01-    
200915 F51  .14+  .06-    200916 F51  .16+  .05-    200916 F51  .21+  .02-    
200916 I52  .00   .46-    200916 F51  .22+  .04-    200916 568  .19+  .02-    
200916 I52  .02-  .23-    200916 F51  .22+  .03-    200917 F51  .07+  .02-    
200916 I52  .23+  .21-    200916 F51  .26+  .07-    200917 F51  .06+  .09-    
200916 I52  .10-  .10-    200916 F51  .12+  .03-    200917 F51  .03+  .09-    
200916 711  .47-  .53+    200916 F51  .23+  .06-    

Ephemerides (geocentric):
Date (UTC) HH   RA              Dec         delta   r     elong  mag " sig PA
---- -- -- --  -------------   -----------  ------ ------ -----  --- ---- ---
2020 09 18 10  04 25 44.416   -10 44 14.35  1.0729 1.6979 109.6 20.7 .827 132
2020 09 18 11  04 25 45.413   -10 43 53.79  1.0726 1.6979 109.6 20.7 .864 132
2020 09 18 12  04 25 46.405   -10 43 33.22  1.0723 1.6980 109.6 20.7 .902 132
2020 09 18 13  04 25 47.393   -10 43 12.63  1.0720 1.6980 109.7 20.7 .941 132
2020 09 18 14  04 25 48.377   -10 42 52.03  1.0717 1.6981 109.7 20.7 .981 131
2020 09 18 15  04 25 49.356   -10 42 31.41  1.0714 1.6981 109.7 20.7 1.02 131
2020 09 18 16  04 25 50.331   -10 42 10.78  1.0711 1.6982 109.7 20.7 1.06 131
2020 09 18 17  04 25 51.301   -10 41 50.13  1.0708 1.6982 109.8 20.7 1.11 131
2020 09 18 18  04 25 52.267   -10 41 29.47  1.0705 1.6983 109.8 20.7 1.15 131
2020 09 18 19  04 25 53.228   -10 41 08.80  1.0702 1.6983 109.8 20.7 1.19 131
2020 09 18 20  04 25 54.184   -10 40 48.11  1.0699 1.6984 109.9 20.7 1.24 131
2020 09 18 21  04 25 55.137   -10 40 27.40  1.0696 1.6984 109.9 20.7 1.29 131
2020 09 18 22  04 25 56.084   -10 40 06.68  1.0693 1.6985 109.9 20.7 1.33 131
2020 09 18 23  04 25 57.027   -10 39 45.95  1.0690 1.6985 110.0 20.7 1.38 130
2020 09 19 00  04 25 57.966   -10 39 25.20  1.0687 1.6986 110.0 20.7 1.43 130
2020 09 19 01  04 25 58.900   -10 39 04.44  1.0685 1.6987 110.0 20.6 1.48 130
2020 09 19 02  04 25 59.830   -10 38 43.66  1.0682 1.6987 110.0 20.6 1.53 130
2020 09 19 03  04 26 00.755   -10 38 22.86  1.0679 1.6988 110.1 20.6 1.59 130
2020 09 19 04  04 26 01.676   -10 38 02.06  1.0676 1.6988 110.1 20.6 1.64 130
2020 09 19 05  04 26 02.592   -10 37 41.23  1.0673 1.6989 110.1 20.6 1.69 130
2020 09 19 06  04 26 03.503   -10 37 20.39  1.0670 1.6989 110.2 20.6 1.75 130
2020 09 19 07  04 26 04.410   -10 36 59.54  1.0667 1.6990 110.2 20.6 1.80 130
2020 09 19 08  04 26 05.313   -10 36 38.67  1.0664 1.6990 110.2 20.6 1.86 130
2020 09 19 09  04 26 06.211   -10 36 17.79  1.0661 1.6991 110.3 20.6 1.92 130
2020 09 19 10  04 26 07.104   -10 35 56.89  1.0658 1.6991 110.3 20.6 1.98 130
2020 09 19 11  04 26 07.993   -10 35 35.97  1.0655 1.6992 110.3 20.6 2.04 130
2020 09 19 12  04 26 08.878   -10 35 15.05  1.0652 1.6992 110.3 20.6 2.10 130
2020 09 19 13  04 26 09.758   -10 34 54.10  1.0649 1.6993 110.4 20.6 2.16 130
2020 09 19 14  04 26 10.633   -10 34 33.14  1.0646 1.6994 110.4 20.6 2.23 129
2020 09 19 15  04 26 11.504   -10 34 12.16  1.0643 1.6994 110.4 20.6 2.29 129
2020 09 19 16  04 26 12.370   -10 33 51.17  1.0640 1.6995 110.5 20.6 2.35 129
2020 09 19 17  04 26 13.232   -10 33 30.17  1.0637 1.6995 110.5 20.6 2.42 129
2020 09 19 18  04 26 14.089   -10 33 09.14  1.0634 1.6996 110.5 20.6 2.49 129
2020 09 19 19  04 26 14.942   -10 32 48.11  1.0631 1.6996 110.6 20.6 2.56 129
2020 09 19 20  04 26 15.790   -10 32 27.05  1.0628 1.6997 110.6 20.6 2.63 129
2020 09 19 21  04 26 16.633   -10 32 05.98  1.0625 1.6997 110.6 20.6 2.70 129
2020 09 19 22  04 26 17.472   -10 31 44.90  1.0622 1.6998 110.6 20.6 2.77 129
2020 09 19 23  04 26 18.306   -10 31 23.80  1.0619 1.6998 110.7 20.6 2.84 129
2020 09 20 00  04 26 19.136   -10 31 02.68  1.0616 1.6999 110.7 20.6 2.91 129
2020 09 20 01  04 26 19.962   -10 30 41.55  1.0613 1.7000 110.7 20.6 2.99 129
2020 09 20 02  04 26 20.782   -10 30 20.40  1.0610 1.7000 110.8 20.6 3.06 129
2020 09 20 03  04 26 21.598   -10 29 59.24  1.0607 1.7001 110.8 20.6 3.14 129
2020 09 20 04  04 26 22.410   -10 29 38.06  1.0604 1.7001 110.8 20.6 3.22 129
2020 09 20 05  04 26 23.217   -10 29 16.87  1.0601 1.7002 110.9 20.6 3.30 129
2020 09 20 06  04 26 24.019   -10 28 55.65  1.0598 1.7002 110.9 20.6 3.38 129
2020 09 20 07  04 26 24.817   -10 28 34.43  1.0595 1.7003 110.9 20.6 3.46 129
2020 09 20 08  04 26 25.610   -10 28 13.18  1.0592 1.7003 111.0 20.6 3.54 129
2020 09 20 09  04 26 26.399   -10 27 51.92  1.0589 1.7004 111.0 20.6 3.62 129